Hourly Data Report for September 06, 2017

All times are specified in Local Standard Time (LST). Add 1 hour to adjust for Daylight Saving Time where and when it is observed.

RANKIN INLET A
NUNAVUT

62°48'38.000" N
92°06'53.000" W
32.30 m
2303405
71083
YRT

Download Data

Hourly Data (September 2017)
Hourly Data Report for September 6, 2017
Temp Definition
°C
Dew Point Temp Definition
°C
Rel Hum Definition
%
Wind Dir Definition
10's deg

Wind Spd Definition
km/h
Visibility Definition
km
Stn Press Definition
kPa
Hmdx Definition


Wind Chill Definition


Weather Definition


TIME
00:00 Legend Double Dagger 3.6 2.4 92 33 18 24.1 101.21     Mainly Clear
01:00 Legend Double Dagger 2.9 2.0 94 36 11 24.1 101.22     LegendNANA
02:00 Legend Double Dagger 2.5 1.7 94 36 10 24.1 101.22     LegendNANA
03:00 Legend Double Dagger 2.4 1.7 95 3 9 24.1 101.25     Mainly Clear
04:00 Legend Double Dagger 2.5 1.8 95 3 7 24.1 101.26     LegendNANA
05:00 Legend Double Dagger 2.4 1.6 95 2 8 24.1 101.30     LegendNANA
06:00 Legend Double Dagger 2.4 1.5 94 2 7 24.1 101.34     Mainly Clear
07:00 Legend Double Dagger 4.1 2.9 92 3 5 24.1 101.35     LegendNANA
08:00 Legend Double Dagger 4.6 2.9 89 36 5 24.1 101.36     LegendNANA
09:00 Legend Double Dagger 5.7 1.3 74 6 4 24.1 101.37     Mostly Cloudy
10:00 Legend Double Dagger 6.0 1.1 70 14 6 24.1 101.39     LegendNANA
11:00 Legend Double Dagger 6.3 1.7 72 17 8 24.1 101.41     LegendNANA
12:00 Legend Double Dagger 6.1 2.6 78 18 7 24.1 101.43     Rain
13:00 Legend Double Dagger 6.4 2.1 74 33 4 24.1 101.45     LegendNANA
14:00 Legend Double Dagger 6.7 2.6 75 17 8 24.1 101.44     LegendNANA
15:00 Legend Double Dagger 6.4 3.1 79 17 19 24.1 101.47     Mostly Cloudy
16:00 Legend Double Dagger 6.3 2.9 79 14 15 24.1 101.49     LegendNANA
17:00 Legend Double Dagger 5.3 2.0 79 13 19 24.1 101.52     LegendNANA
18:00 Legend Double Dagger 4.8 1.6 80 14 17 24.1 101.54     Mostly Cloudy
19:00 Legend Double Dagger 4.2 2.3 88 14 18 16.1 101.55     LegendNANA
20:00 Legend Double Dagger 4.2 1.7 83 14 16 16.1 101.54     LegendNANA
21:00 Legend Double Dagger 4.5 1.6 81 16 16 24.1 101.57     Mostly Cloudy
22:00 Legend Double Dagger 4.7 1.8 82 16 15 24.1 101.55     LegendNANA
23:00 Legend Double Dagger 4.8 1.5 79 17 20 24.1 101.55     LegendNANA

Notes on Data Quality.

Legend

  • E = Estimated
  • M = Missing
  • NA = Not Available
  • ‡ = Partner data that is not subject to review by the National Climate Archives
Date modified: